OBJECT AU, 57208

Orbit data source: Space-Track

You're viewing an Uncataloged Satellite

Recently launched and/or uncataloged satellites may have evolving metadata. Metadata may include but not limited to: Owner, Maufacturer, Bus, Motor, and Mission.

OBJECT AU, 57208 is a satellite in SSO that was launched on Tue, 27 Jun 2023 UTC via a SOYUZ-2-1B launch vehicle from the Vostochny Cosmodrome (VOSTO). Unknown objects in Earth's orbit typically refer to objects detected orbiting the Earth but have not yet been identified or cataloged. These objects could be anything from previously untracked satellites, spent rocket stages, debris from satellite collisions, or even natural meteoroids temporarily captured by Earth's gravity.

Loading next visibility...
Identifier
57208, 2023-091AU
Orbit
SSO
Country
Flag of TBDTBD
Related business
Manufacturer
Sputniks
Mission
Operational Commercial Communications
Bus & Motor
CUBESAT 3U?, Unknown motor
Mass
3 kg wet, 3 kg dry
Launch date (UTC)
2023-06-27 (3 years ago)
Launch vehicle
SOYUZ-2-1B
Launch site
Vostochny Cosmodrome (VOSTO)
Object type
Unknown
Shape & HBR
Box, 0.2 m
Radar Cross Section
0.035 m², Medium (>0.1 m² and < 1m²)

Expand to show TLE details & history
Last TLE update: 15 hours ago

TLE from 15 hours ago
0 OBJECT AU
1 57208U 23091AU  26207.60224657  .00021988  00000-0  54792-3 0  9994
2 57208  97.5075 279.5841 0004371 279.2834  80.7917 15.40238203170854
Epoch: 2026-07-26T14:27Z
TLE epoch observation values (Epoch: 2026-07-26T14:27:14.103Z)
Latitude
-0.00007°
Longitude
118.47753°
Altitude
448.044 km
Speed
7.644 km/s
True Right ascension
18h 38m 20s
True Declination
0° 00' 00"
Sunlit
Object was in full shadow at epoch
Visualization orbit readout
Latitude
Unknown
Longitude
Unknown
Altitude
Unknown
Speed
Unknown
Apparent Right ascension
Unknown
Apparent Declination
Unknown
Sunlit
N/A
Visualization observer readout
Local Sidereal Time
19:12:11
Azimuth
Unknown
Elevation
Unknown
Doppler factor
Unknown
Orbital elements
Apogee altitude
445.33 km
Perigee altitude
439.368 km
Semi-major axis
6,820.486 km
Eccentricity
0.00044
Inclination
97.5075°
RAAN
279.5841°
Arg. of periapsis
279.2834°
True anomaly
80.84115°
Mean anomaly
80.7917°
Eccentric anomaly
80.81642°
Mean motion
3.85319 °/min
Orbital period
93.43 mins
BSTAR
0.00054792
Loading maneuver chart data...
Computing Atmospheric mass density...
Loading historical data...
Loading historical data...
Loading historical data...
Loading historical data...
Loading historical data...
Loading historical data...
Loading historical data...

Documentation

Showing up to 5 results
|